Weather History for Atka, AK

Change the Weather History Date:

Monday, September 30, 2013

  Actual Average (PADK) Record (PADK)
Temperature  
Mean Temperature 44 °F -  
Max Temperature 48 °F 49 °F 54 °F (1965)
Min Temperature 39 °F 40 °F 30 °F (1990)
Degree Days  
Heating Degree Days 22    
Moisture  
Dew Point 39 °F    
Average Humidity 82    
Maximum Humidity 93    
Minimum Humidity 71    
Precipitation  
Precipitation 0.00 in - - ()
Sea Level Pressure  
Sea Level Pressure 30.06 in    
Wind  
Wind Speed 7 mph (ESE)    
Max Wind Speed 24 mph    
Max Gust Speed 30 mph    
Visibility 8 miles    
Events      
Averages and records for this station are not official NWS values.
T = Trace of Precipitation, MM = Missing Value Source: NWS Daily Summary

Daily Weather History Graph

Daily Weather History Graph

Search for Another Location

Airport:

Trip Planner

Search our weather history database for the weather conditions in past years. The results will help you decide how hot, cold, wet, or windy it might be!

Date:

Astronomy

Sep. 30, 2013 Rise Set
Actual Time 8:37 AM HADT 8:15 PM HADT
Civil Twilight 8:03 AM HADT 8:48 PM HADT
Nautical Twilight 7:23 AM HADT 9:28 PM HADT
Astronomical Twilight 6:43 AM HADT 10:08 PM HADT
Moon 4:00 AM HADT (9/30) 6:16 PM HADT (9/30)
Length of Visible Light 12h 45m
Length of Day
11h 38m
Waning Crescent, 17% of the Moon is Illuminated
Sep 30
Waning Crescent
Oct 4
New
Oct 11
First Quarter
Oct 18
Full
Oct 26
Last Quarter

Hourly Weather History & Observations

Time (HADT) Temp. Windchill Dew Point Humidity Pressure Visibility Wind Dir Wind Speed Gust Speed Precip Events Conditions
12:16 AM 41.0 °F - 37.4 °F 87% 30.33 in 10.0 mi Calm Calm - N/A   Mostly Cloudy
12:36 AM 41.0 °F - 37.4 °F 87% 30.33 in 10.0 mi Calm Calm - N/A   Overcast
12:56 AM 42.8 °F - 37.4 °F 81% 30.32 in 10.0 mi Calm Calm - N/A   Overcast
1:16 AM 42.8 °F - 39.2 °F 87% 30.32 in 10.0 mi Calm Calm - N/A   Overcast
1:36 AM 44.6 °F - 39.2 °F 81% 30.32 in 10.0 mi Calm Calm - N/A   Overcast
1:56 AM 42.8 °F - 39.2 °F 87% 30.31 in 10.0 mi Calm Calm - N/A   Overcast
2:16 AM 42.8 °F - 37.4 °F 81% 30.31 in 10.0 mi Calm Calm - N/A   Overcast
2:36 AM 44.6 °F - 37.4 °F 76% 30.30 in 10.0 mi Calm Calm - N/A   Overcast
2:56 AM 42.8 °F 36.6 °F 37.4 °F 81% 30.29 in 10.0 mi South 11.5 mph 20.7 mph N/A   Overcast
3:16 AM 42.8 °F - 37.4 °F 81% 30.28 in 10.0 mi Calm Calm - N/A   Mostly Cloudy
3:36 AM 41.0 °F - 35.6 °F 81% 30.28 in 10.0 mi Calm Calm - N/A   Mostly Cloudy
3:56 AM 41.0 °F - 35.6 °F 81% 30.27 in 10.0 mi Calm Calm - N/A   Overcast
4:16 AM 39.2 °F - 35.6 °F 87% 30.27 in 10.0 mi Calm Calm - N/A   Overcast
4:36 AM 39.2 °F 37.0 °F 35.6 °F 87% 30.26 in 10.0 mi WNW 3.5 mph - N/A   Overcast
4:56 AM 39.2 °F - 35.6 °F 87% 30.25 in 10.0 mi Calm Calm - N/A   Overcast
5:16 AM 39.2 °F - 35.6 °F 87% 30.25 in 10.0 mi Calm Calm - N/A   Overcast
5:36 AM 41.0 °F - 35.6 °F 81% 30.25 in 10.0 mi Calm Calm - N/A   Overcast
5:56 AM 41.0 °F - 35.6 °F 81% 30.24 in 10.0 mi Calm Calm - N/A   Overcast
6:16 AM 41.0 °F - 37.4 °F 87% 30.23 in 10.0 mi Calm Calm - N/A   Overcast
6:36 AM 41.0 °F 39.0 °F 37.4 °F 87% 30.22 in 10.0 mi WSW 3.5 mph - N/A   Mostly Cloudy
6:56 AM 41.0 °F 39.0 °F 37.4 °F 87% 30.21 in 10.0 mi SSE 3.5 mph - N/A   Clear
7:16 AM 41.0 °F - 37.4 °F 87% 30.21 in 10.0 mi Calm Calm - N/A   Clear
7:36 AM 39.2 °F 37.0 °F 35.6 °F 87% 30.20 in 10.0 mi South 3.5 mph - N/A   Scattered Clouds
7:56 AM 39.2 °F 37.0 °F 37.4 °F 93% 30.20 in 10.0 mi SSE 3.5 mph - N/A   Overcast
8:16 AM 41.0 °F 39.0 °F 37.4 °F 87% 30.20 in 10.0 mi SSE 3.5 mph - N/A   Overcast
8:36 AM 42.8 °F 40.1 °F 37.4 °F 81% 30.19 in 10.0 mi SE 4.6 mph - N/A   Overcast
8:56 AM 42.8 °F - 37.4 °F 81% 30.19 in 10.0 mi Calm Calm - N/A   Overcast
9:16 AM 44.6 °F 40.2 °F 39.2 °F 81% 30.18 in 10.0 mi East 8.1 mph - N/A   Overcast
9:36 AM 44.6 °F 40.2 °F 39.2 °F 81% 30.18 in 10.0 mi East 8.1 mph - N/A   Overcast
9:56 AM 44.6 °F 38.8 °F 39.2 °F 81% 30.17 in 10.0 mi ESE 11.5 mph 16.1 mph N/A   Overcast
10:16 AM 46.4 °F 41.5 °F 39.2 °F 76% 30.16 in 10.0 mi ESE 10.4 mph - N/A   Overcast
10:36 AM 46.4 °F 41.5 °F 39.2 °F 76% 30.16 in 10.0 mi SE 10.4 mph - N/A   Overcast
10:56 AM 46.4 °F 41.5 °F 37.4 °F 71% 30.15 in 10.0 mi ESE 10.4 mph 16.1 mph N/A   Overcast
11:16 AM 46.4 °F 40.1 °F 37.4 °F 71% 30.15 in 10.0 mi SE 15.0 mph - N/A   Overcast
11:36 AM 46.4 °F 40.7 °F 39.2 °F 76% 30.14 in 10.0 mi SE 12.7 mph - N/A   Overcast
11:56 AM 46.4 °F 40.4 °F 39.2 °F 76% 30.13 in 10.0 mi ESE 13.8 mph - N/A   Overcast
12:16 PM 46.4 °F 40.7 °F 39.2 °F 76% 30.13 in 10.0 mi SE 12.7 mph - N/A   Overcast
12:36 PM 46.4 °F 40.4 °F 37.4 °F 71% 30.12 in 10.0 mi ESE 13.8 mph - N/A   Overcast
12:56 PM 46.4 °F 40.1 °F 37.4 °F 71% 30.10 in 10.0 mi ESE 15.0 mph - N/A   Overcast
1:16 PM 46.4 °F 40.1 °F 39.2 °F 76% 30.07 in 10.0 mi East 15.0 mph - N/A   Overcast
1:36 PM 46.4 °F 40.7 °F 39.2 °F 76% 30.06 in 10.0 mi ESE 12.7 mph - N/A   Overcast
1:56 PM 46.4 °F 39.8 °F 39.2 °F 76% 30.06 in 10.0 mi ESE 16.1 mph - N/A   Overcast
2:16 PM 46.4 °F 40.1 °F 39.2 °F 76% 30.06 in 10.0 mi ESE 15.0 mph - N/A   Overcast
2:36 PM 46.4 °F 40.1 °F 39.2 °F 76% 30.06 in 10.0 mi ESE 15.0 mph - N/A   Overcast
2:56 PM 46.4 °F 40.1 °F 39.2 °F 76% 30.04 in 10.0 mi ESE 15.0 mph - N/A   Overcast
3:16 PM 46.4 °F 40.1 °F 39.2 °F 76% 30.02 in 10.0 mi East 15.0 mph - N/A   Overcast
3:36 PM 46.4 °F 40.1 °F 39.2 °F 76% 30.01 in 10.0 mi ESE 15.0 mph - N/A   Overcast
3:56 PM 46.4 °F 40.1 °F 39.2 °F 76% 29.99 in 10.0 mi ESE 15.0 mph - N/A   Overcast
4:16 PM 46.4 °F 39.5 °F 39.2 °F 76% 29.98 in 10.0 mi ESE 17.3 mph 20.7 mph N/A   Overcast
4:36 PM 46.4 °F 39.2 °F 41.0 °F 81% 29.96 in 10.0 mi ESE 18.4 mph - N/A   Overcast
4:56 PM 46.4 °F 39.0 °F 41.0 °F 81% 29.95 in 10.0 mi ESE 19.6 mph - N/A   Overcast
5:16 PM 46.4 °F 39.0 °F 41.0 °F 81% 29.93 in 10.0 mi ESE 19.6 mph 24.2 mph N/A   Overcast
5:36 PM 46.4 °F 39.5 °F 41.0 °F 81% 29.92 in 10.0 mi SE 17.3 mph - N/A   Overcast
5:56 PM 46.4 °F 38.7 °F 41.0 °F 81% 29.90 in 5.0 mi SE 20.7 mph - N/A   Overcast
6:16 PM 46.4 °F 38.7 °F 41.0 °F 81% 29.88 in 7.0 mi SE 20.7 mph 29.9 mph N/A   Overcast
6:36 PM 46.4 °F 38.3 °F 41.0 °F 81% 29.88 in 8.0 mi SE 23.0 mph 27.6 mph N/A   Overcast
6:56 PM 46.4 °F 39.0 °F 42.8 °F 87% 29.87 in 3.0 mi SE 19.6 mph - N/A   Overcast
7:16 PM 46.4 °F 39.0 °F 42.8 °F 87% 29.85 in 1.8 mi ESE 19.6 mph - N/A   Overcast
7:36 PM 46.4 °F 39.8 °F 42.8 °F 87% 29.83 in 1.5 mi ESE 16.1 mph - N/A   Overcast
7:56 PM 46.4 °F 39.5 °F 42.8 °F 87% 29.80 in 1.0 mi ESE 17.3 mph 20.7 mph N/A   Overcast
8:16 PM 46.4 °F 39.8 °F 42.8 °F 87% 29.79 in 1.5 mi East 16.1 mph - N/A   Overcast
8:36 PM 46.4 °F 38.5 °F 42.8 °F 87% 29.77 in 2.5 mi ESE 21.9 mph 27.6 mph N/A   Overcast
8:56 PM 46.4 °F 39.5 °F 42.8 °F 87% 29.76 in 3.0 mi ESE 17.3 mph - N/A   Overcast
9:16 PM 46.4 °F 38.7 °F 44.6 °F 93% 29.76 in 2.5 mi ESE 20.7 mph - N/A   Overcast
9:36 PM 46.4 °F 38.5 °F 44.6 °F 93% 29.73 in 2.0 mi ESE 21.9 mph 25.3 mph N/A   Overcast
9:56 PM 46.4 °F 40.1 °F 44.6 °F 93% 29.71 in 3.0 mi ESE 15.0 mph 23.0 mph N/A   Overcast
10:16 PM 46.4 °F 38.3 °F 44.6 °F 93% 29.69 in 3.0 mi ESE 23.0 mph - N/A   Overcast
10:36 PM 48.2 °F - 44.6 °F 87% 29.67 in 2.0 mi ESE 24.2 mph - N/A   Overcast
10:56 PM 48.2 °F - 44.6 °F 87% 29.66 in 2.0 mi ESE 23.0 mph 26.5 mph N/A   Overcast
11:16 PM 48.2 °F - 44.6 °F 87% 29.64 in 2.5 mi ESE 20.7 mph - N/A   Overcast
11:36 PM 48.2 °F - 44.6 °F 87% 29.62 in 2.0 mi ESE 19.6 mph 24.2 mph N/A   Overcast
11:56 PM 48.2 °F - 44.6 °F 87% 29.60 in 2.5 mi ESE 18.4 mph - N/A   Overcast